Theta_e
293 293 293 294 293 293 293 293 293 293 292 292 292 292 292 293 293 293 293 292 292 292 292 292 292 292 292 292 292 291 290 290 290 290 290 291 290 290 289 290 291 292 294 292 292 293 295 293 294 295 292 290 291 293
293 293 293 293 293 293 293 293 292 292 292 292 292 292 293 293 293 292 292 292 292 291 291 290 291 290 291 291 292 290 291 290 290 291 291 291 291 291 290 290 291 295 293 293 293 294 293 291 291 290 289 290 290 292
293 293 293 293 292 293 293 292 292 292 292 292 292 292 292 292 292 290 290 291 290 290 292 292 292 289 288 289 290 290 291 291 291 291 291 291 290 290 291 291 291 292 290 292 290 293 290 290 289 289 289 289 290 291
292 292 292 292 293 292 292 292 292 292 291 292 292 292 292 292 292 288 290 289 289 290 291 291 288 289 287 288 288 289 290 290 290 291 291 291 291 290 291 291 291 288 289 287 289 290 289 291 289 288 289 289 289 291
292 292 293 293 292 293 292 292 292 291 291 292 292 291 291 291 290 288 288 289 289 288 290 290 289 287 288 289 289 289 289 290 291 292 292 291 291 291 291 292 289 285 286 286 287 287 288 288 288 288 288 289 289 290
292 293 292 292 292 292 292 292 291 291 291 291 291 291 291 291 288 290 290 289 289 288 290 290 288 288 288 289 290 290 289 290 292 292 292 291 288 289 291 291 286 284 284 285 287 287 287 287 288 288 288 290 289 289
292 292 291 292 292 292 292 291 291 291 291 291 290 290 290 289 290 290 290 289 289 287 289 290 290 288 287 289 290 291 289 289 290 289 287 288 286 288 286 284 282 283 285 287 287 287 288 288 288 288 288 288 288 287
291 291 291 292 292 292 291 291 291 291 291 290 289 288 290 289 288 289 288 289 287 289 288 289 289 288 287 289 291 291 291 289 288 287 287 285 285 284 284 282 282 283 286 287 287 287 287 287 288 288 288 288 287 287
291 291 291 292 293 290 290 290 290 290 289 288 285 288 288 288 289 288 286 287 287 288 289 288 287 288 287 289 290 291 291 289 288 287 285 284 282 281 281 282 282 284 286 287 287 287 287 287 287 287 287 287 286 286
290 290 291 292 292 289 290 290 290 289 287 285 286 288 289 286 282 286 286 288 286 286 287 286 285 286 285 287 291 291 291 289 289 286 286 285 283 281 281 281 282 283 285 285 285 286 286 286 286 286 286 286 286 286
290 290 291 292 291 289 290 289 289 285 284 287 287 287 285 281 284 284 285 285 283 285 284 284 283 283 285 287 289 289 289 289 288 286 285 285 283 281 280 281 281 281 282 283 283 283 284 285 285 284 284 284 284 284
289 290 290 292 289 289 289 289 287 283 283 285 285 281 281 281 284 284 280 282 283 283 283 282 282 282 283 285 289 290 289 289 287 285 284 284 282 281 280 280 280 280 281 281 281 281 281 282 282 282 283 283 283 283
289 290 291 289 289 289 288 287 283 282 283 281 282 281 282 279 281 282 282 283 283 281 281 281 282 283 284 287 289 289 288 288 286 285 284 283 281 280 280 280 280 279 280 280 280 280 280 280 280 281 281 281 282 282
289 290 291 288 289 288 286 284 282 281 281 280 282 280 280 280 280 280 280 280 280 280 280 280 282 284 285 286 286 288 286 287 286 285 284 282 280 280 280 279 279 279 279 279 279 279 279 279 279 279 279 280 281 281
289 290 290 288 288 287 284 283 282 281 281 281 282 280 280 279 279 278 278 278 279 279 280 281 282 283 285 285 285 286 286 285 285 285 283 281 280 279 279 279 278 278 278 278 278 278 278 278 278 278 278 278 279 279
289 289 287 288 287 284 284 283 282 281 278 281 281 280 280 279 279 278 278 278 279 279 279 280 282 284 283 284 284 284 285 285 284 282 281 280 279 278 278 278 277 277 277 277 277 277 277 277 277 277 277 277 277 278
289 289 287 286 284 283 284 283 282 278 281 282 281 279 279 278 278 278 278 278 277 278 283 282 282 281 282 282 282 281 283 283 282 280 279 278 278 278 277 277 276 276 276 276 276 276 276 277 277 277 277 276 277 277
288 288 286 284 283 283 283 282 280 283 282 279 282 280 279 279 278 278 277 277 278 280 280 279 279 280 280 281 281 280 280 280 279 278 277 277 276 276 276 276 275 275 275 275 275 275 275 275 276 276 276 276 277 277
288 286 285 283 283 283 282 278 278 283 281 280 280 280 279 278 277 276 276 277 277 277 277 277 277 278 279 279 280 280 279 279 278 277 275 275 275 275 274 274 274 274 273 274 274 274 274 274 274 275 276 276 276 277
285 284 283 282 283 282 281 278 275 283 283 281 280 280 279 278 277 276 276 276 276 276 275 275 276 276 277 277 279 279 278 277 277 277 276 275 274 273 273 273 273 273 273 273 273 274 274 274 274 274 275 276 276 276
283 283 282 282 281 279 274 274 277 275 278 281 278 279 281 280 278 277 276 275 275 275 275 275 275 275 274 275 276 277 277 277 277 278 276 275 274 273 273 272 272 272 272 272 273 273 273 273 274 273 273 275 275 275
282 282 281 281 278 275 273 268 274 272 277 277 279 279 279 279 279 277 276 275 275 275 275 275 275 275 274 273 273 274 275 275 276 276 275 275 274 273 273 272 272 272 272 271 271 272 272 272 274 273 272 274 274 275
281 281 279 277 278 278 273 269 277 273 280 278 277 281 279 279 277 276 277 276 275 274 274 274 273 273 273 272 272 272 273 273 273 273 273 272 272 272 272 271 271 271 271 271 270 271 271 272 272 272 272 273 273 274
279 274 273 275 276 276 273 275 274 276 275 277 279 280 278 277 275 279 278 277 275 275 275 274 274 274 273 273 272 272 271 272 271 271 271 272 272 271 271 271 270 270 270 270 270 270 270 270 271 271 271 272 273 274
278 273 274 275 274 276 277 277 276 279 278 273 276 278 277 271 281 281 279 277 276 275 274 274 274 275 274 273 272 271 271 271 272 271 270 271 271 271 271 270 270 269 269 269 269 269 269 269 270 270 270 272 273 273
275 272 275 275 276 277 276 278 276 275 274 276 276 273 271 277 281 281 279 277 276 275 274 275 274 274 273 273 272 272 271 271 271 272 270 271 271 271 270 270 271 271 269 268 268 268 269 269 269 270 270 270 271 271
275 275 275 273 274 274 275 273 273 275 275 275 275 275 276 277 279 277 274 273 274 273 273 273 273 273 273 271 271 271 271 271 271 271 271 271 271 270 270 270 269 270 270 269 270 269 269 269 269 269 270 270 270 270
275 275 274 273 273 271 273 273 273 274 274 272 273 274 275 277 278 274 273 271 271 271 271 272 272 271 271 271 271 271 270 271 271 271 271 271 271 270 270 270 270 270 270 270 269 269 269 269 270 270 269 270 270 270
275 274 274 269 270 272 271 273 273 271 270 271 274 276 274 271 270 270 270 270 270 271 270 270 270 271 271 271 271 271 271 271 271 270 271 272 271 270 270 270 271 271 271 271 270 269 269 270 269 269 269 269 270 270
272 271 272 268 270 274 271 269 270 268 267 268 267 269 269 270 269 269 269 269 269 270 271 271 271 270 270 270 270 270 271 271 271 271 271 271 271 270 271 271 271 271 271 270 270 269 269 269 269 269 269 269 269 269
270 271 271 271 272 270 268 265 265 266 265 266 264 267 270 268 268 269 269 270 270 270 270 270 270 270 270 271 271 271 270 271 271 271 271 271 271 271 271 272 271 271 270 270 270 269 269 269 268 268 268 268 268 268
271 269 271 271 271 267 265 267 267 268 267 268 269 265 267 269 271 270 269 270 269 269 270 271 270 271 271 271 271 271 271 271 271 271 270 270 271 272 272 272 271 271 270 270 270 269 269 269 268 268 267 267 267 267
266 266 265 268 269 269 268 268 268 268 268 269 270 267 267 269 271 269 269 269 270 271 271 271 270 271 271 271 271 271 271 271 271 270 270 270 271 273 273 272 271 271 270 270 269 269 269 268 268 267 267 267 267 266
Wind_Speed
3 3 5 8 10 12 15 18 19 20 21 22 22 22 23 26 26 23 20 13 7 4 12 15 7 10 11 7 7 8 6 2 3 3 2 3 4 4 4 8 8 3 2 3 3 3 3 19 9 8 11 17 18 18
2 4 6 9 11 14 17 18 19 21 22 22 22 23 24 25 23 18 10 9 7 6 8 19 18 19 16 17 9 3 6 5 3 3 2 3 3 4 6 4 7 2 4 5 5 3 14 14 7 11 15 16 17 19
3 4 7 10 12 15 18 19 20 21 22 23 23 23 24 22 15 14 7 7 3 3 6 3 3 0 4 6 8 4 5 2 4 4 2 2 5 2 3 4 6 5 10 4 10 7 17 16 15 16 17 18 17 15
2 5 8 11 13 16 18 20 21 21 22 23 23 23 22 16 10 8 5 6 3 4 3 1 1 6 4 4 7 16 14 12 4 4 4 3 3 3 2 4 5 6 8 13 14 9 17 1 19 20 19 17 15 13
3 6 10 11 14 16 19 20 21 21 23 23 23 22 19 9 7 2 7 6 5 2 4 6 8 2 6 10 11 11 13 11 6 4 3 3 2 3 5 3 4 7 6 5 6 19 15 17 19 19 16 14 13 12
3 6 10 12 15 17 20 21 20 23 23 23 22 21 12 7 5 3 2 1 7 6 3 3 2 3 10 12 8 7 10 4 2 1 2 3 4 4 3 4 3 17 14 14 10 13 16 16 14 11 10 11 11 10
3 7 10 13 16 19 21 20 21 24 24 24 22 15 5 3 1 3 3 8 12 6 2 3 3 2 8 4 4 3 7 3 4 2 4 4 5 7 3 5 17 18 17 16 12 13 10 3 5 6 5 6 10 14
5 8 11 14 17 20 19 19 24 24 23 24 17 6 3 3 2 2 4 10 10 2 2 3 3 4 7 4 3 2 2 3 5 3 2 6 3 5 2 16 17 16 15 9 9 7 5 3 3 7 9 8 10 11
5 8 11 15 17 17 18 21 24 23 23 19 8 4 2 1 1 1 7 5 5 3 2 3 5 4 7 3 3 2 2 2 2 4 4 3 5 5 11 16 16 16 9 8 7 8 8 10 10 10 11 10 14 13
6 8 13 16 18 15 21 21 23 22 21 10 2 3 2 2 8 3 1 1 3 3 3 3 5 3 5 4 2 4 2 3 2 5 2 5 4 10 14 13 12 13 10 9 8 9 9 11 12 13 11 12 12 12
7 10 12 16 17 16 19 22 20 21 6 3 4 1 4 6 1 3 2 3 3 2 4 4 4 5 3 3 3 3 2 3 3 5 4 5 6 13 15 13 12 12 13 12 14 13 13 12 10 12 14 15 19 20
8 9 12 16 13 19 18 17 15 12 4 2 2 2 4 5 3 4 2 2 3 3 5 5 5 4 4 3 2 3 2 2 4 2 3 4 7 14 15 14 13 16 17 15 22 19 24 24 23 21 19 20 22 22
9 9 14 12 16 16 17 13 12 7 2 1 2 3 4 5 7 4 5 2 3 5 4 6 5 3 3 2 2 2 2 3 1 3 3 3 8 10 13 12 12 20 23 24 24 27 25 25 26 24 19 19 19 20
9 11 14 7 18 16 14 10 10 3 2 3 4 6 4 3 3 2 4 4 4 4 7 6 4 2 3 3 2 2 2 1 2 2 3 4 8 9 10 10 11 14 18 19 20 21 21 21 21 23 23 20 19 20
9 12 12 9 16 15 10 5 6 5 4 3 3 4 3 3 2 3 3 4 5 5 5 4 4 3 2 2 2 1 2 3 3 2 2 4 6 8 9 11 11 12 14 16 18 18 18 19 20 21 21 20 19 19
11 11 2 17 13 14 5 1 5 4 4 2 3 1 3 3 1 3 4 5 2 4 3 3 2 1 3 2 2 3 1 2 3 3 4 4 6 8 8 11 12 13 15 15 17 17 17 18 18 16 18 19 18 18
10 1 15 14 14 6 3 2 3 5 3 3 2 0 2 3 4 4 5 3 6 3 1 1 1 2 2 1 2 3 3 5 7 6 5 6 7 7 9 11 13 14 15 16 17 16 15 15 15 16 17 16 14 15
4 13 14 11 10 1 2 5 4 2 3 1 0 1 2 3 4 3 3 3 3 3 2 2 2 2 2 1 2 3 4 6 6 6 5 7 8 9 9 10 11 11 13 14 13 13 16 15 15 14 13 11 11 14
11 9 9 11 3 2 3 3 4 3 2 1 1 0 2 2 3 5 3 1 2 4 1 1 3 2 2 2 4 5 5 4 5 5 6 9 9 8 8 9 10 12 12 13 13 12 12 14 13 12 12 12 11 12
3 4 12 5 2 3 2 2 3 2 2 2 2 2 2 2 2 2 3 3 3 2 3 3 2 2 2 3 4 5 5 7 5 5 5 7 8 9 11 10 10 10 11 12 13 14 12 12 14 13 12 10 9 10
1 4 6 4 3 7 5 2 2 2 1 1 1 1 1 1 3 2 2 3 3 2 2 2 2 2 4 6 7 8 7 4 3 2 4 4 6 7 8 9 8 9 10 11 11 11 12 12 11 11 11 11 10 10
4 6 2 4 4 3 4 4 2 1 1 1 1 1 0 1 1 2 1 3 2 2 2 2 2 2 5 7 8 9 8 11 12 12 10 7 6 7 8 9 8 9 9 10 10 11 11 12 14 12 11 11 10 9
3 3 4 6 3 4 1 2 0 4 0 1 1 1 1 1 1 1 2 2 2 3 3 3 5 7 10 9 10 12 10 9 10 9 8 8 8 8 8 9 10 10 9 10 11 11 11 12 13 13 13 11 11 10
4 6 4 3 3 2 0 2 1 1 1 2 1 1 1 2 3 1 3 2 2 2 3 4 4 6 7 7 8 8 7 7 8 7 6 5 6 6 6 7 6 8 9 8 10 11 10 10 10 10 10 9 9 8
4 6 4 4 2 3 3 2 3 2 2 2 1 1 1 2 0 1 2 3 3 2 3 2 2 3 3 3 4 4 5 5 5 6 5 5 5 4 3 3 5 8 10 10 11 11 12 12 11 13 11 11 13 12
5 4 4 3 3 3 2 2 3 2 1 1 1 1 1 1 0 2 2 4 3 3 4 4 3 3 3 2 4 3 2 4 5 5 4 5 5 4 2 3 4 5 11 10 10 12 14 15 15 15 13 13 12 13
3 3 2 2 1 1 1 1 1 1 1 2 1 2 1 0 1 1 2 2 2 4 6 5 4 3 5 5 4 4 4 5 5 3 5 4 1 1 2 4 4 7 11 12 11 12 13 15 15 14 14 15 13 13
2 2 1 2 2 1 1 1 1 1 1 1 1 1 1 1 0 1 2 1 5 8 8 6 5 5 5 5 4 3 4 4 5 4 3 4 4 3 3 3 7 9 10 9 9 12 14 14 15 14 15 16 16 13
2 2 1 3 1 1 1 1 1 1 1 1 1 1 1 1 1 1 1 5 7 7 6 5 4 4 4 5 4 2 4 7 6 3 2 1 1 1 1 5 7 10 10 10 12 10 12 12 12 12 12 12 12 11
1 2 1 1 1 0 1 1 1 1 1 1 2 3 2 2 3 5 5 7 7 6 6 7 6 7 5 6 5 5 4 5 5 4 2 2 1 2 3 6 9 8 10 12 13 13 11 11 10 9 10 9 9 10
1 1 2 1 0 1 1 2 2 1 1 1 1 2 2 3 4 7 10 9 9 8 8 8 8 9 8 8 7 5 6 8 6 4 2 1 0 1 5 9 7 10 11 12 12 13 13 12 12 12 11 10 9 10
1 2 1 0 0 1 1 1 1 1 0 1 1 1 2 2 2 5 7 15 12 10 10 9 9 9 10 8 7 5 2 3 6 5 3 2 0 5 11 7 8 11 12 13 12 12 12 12 12 11 11 11 10 10
1 1 1 0 1 0 1 1 1 2 1 1 1 1 1 2 3 1 3 14 13 11 9 7 6 6 6 9 8 6 5 4 4 4 3 5 7 9 10 10 10 12 14 14 13 11 11 11 11 10 10 11 11 11
Wind_Direction
223 295 318 322 327 335 334 330 330 328 326 324 323 325 323 324 322 324 310 300 226 275 293 298 271 280 293 270 282 321 318 160 265 274 302 333 307 7 300 314 295 276 247 191 229 270 272 8 358 31 331 326 325 320
253 299 314 324 330 334 331 330 328 327 325 323 324 326 326 327 330 328 308 331 291 266 285 296 283 277 273 281 287 265 265 290 279 285 277 286 298 307 318 305 334 352 23 318 323 346 0 348 346 354 343 328 331 318
264 313 321 325 333 333 330 330 329 326 326 326 327 329 329 331 331 335 319 356 330 270 278 284 296 98 325 282 249 256 259 246 226 202 276 258 259 269 287 287 314 338 34 344 338 39 350 326 12 349 342 331 328 323
300 326 327 335 332 330 331 330 328 327 327 328 327 329 329 328 327 1 61 23 347 295 287 13 17 315 324 304 257 238 254 270 253 212 221 242 248 198 272 308 304 0 315 340 284 284 336 122 352 341 336 333 333 336
304 332 330 334 332 332 331 328 326 324 327 328 328 328 326 312 318 251 71 57 39 11 310 310 316 320 340 328 305 276 260 260 249 202 198 221 236 242 242 223 82 11 349 315 295 318 298 306 322 332 329 344 352 6
313 336 339 337 336 330 328 327 325 327 328 328 328 322 313 294 331 169 192 134 14 355 285 297 9 310 332 346 1 9 356 348 305 326 16 58 355 329 6 26 28 347 327 305 294 299 294 298 304 338 338 357 19 29
324 339 338 340 335 330 330 325 326 329 329 328 326 315 285 292 76 82 75 328 336 334 270 292 309 27 327 305 329 356 50 31 6 55 27 356 12 345 52 10 331 322 316 313 315 309 290 318 323 330 355 40 59 67
326 331 339 339 334 333 328 327 328 330 330 328 319 305 178 171 120 106 5 359 350 294 259 320 323 320 14 326 324 348 6 35 29 40 26 15 22 14 43 338 326 323 316 319 331 332 343 331 2 39 43 58 67 64
329 331 338 335 335 337 335 332 332 332 330 325 318 191 154 352 9 341 316 323 335 23 16 10 340 335 357 307 297 290 298 77 60 31 39 39 24 33 329 329 332 329 341 351 33 36 52 57 54 55 58 65 70 65
321 326 329 337 334 334 337 335 336 331 328 325 292 226 167 346 326 23 28 25 28 6 20 29 338 311 338 332 329 322 10 26 38 41 80 31 71 359 349 342 340 349 4 35 50 46 59 65 62 59 60 62 65 70
320 322 328 336 329 336 339 340 337 335 336 0 7 28 304 344 63 35 55 27 343 68 14 356 7 326 351 316 338 19 2 1 41 17 17 22 11 356 351 357 360 8 21 38 51 49 48 53 58 60 54 54 58 60
314 321 331 331 336 342 342 339 337 345 344 343 4 22 11 24 31 65 33 356 23 31 3 342 331 307 301 277 292 9 26 24 42 15 29 15 353 349 354 358 13 21 34 43 49 50 48 46 46 49 49 51 51 54
321 320 332 335 350 346 343 340 334 342 27 17 35 50 1 347 43 34 7 36 358 358 14 333 326 310 280 258 282 319 61 62 127 41 34 42 351 351 355 359 15 27 35 40 43 44 47 49 48 47 49 51 60 63
320 327 332 336 348 344 339 333 343 2 49 58 29 26 23 35 40 313 312 315 331 311 322 319 293 302 308 331 336 33 55 185 88 47 39 15 4 359 1 7 16 24 29 35 41 42 47 50 50 48 48 52 57 61
327 328 326 333 342 337 336 340 12 65 62 64 36 43 30 349 283 298 309 290 290 293 303 305 272 265 339 346 2 277 83 74 50 72 70 29 19 14 18 24 27 30 34 39 44 44 45 49 49 48 44 48 53 57
342 338 350 333 335 328 338 51 40 69 66 71 77 38 335 297 231 292 313 308 320 316 296 235 289 297 47 352 32 34 42 74 108 87 71 53 38 35 30 33 36 40 44 46 47 46 46 48 48 51 49 45 47 52
343 331 324 328 327 330 29 85 61 49 87 83 74 34 340 298 294 298 308 315 330 289 309 324 302 36 297 65 72 8 27 104 111 95 74 51 40 37 40 42 39 41 40 42 45 44 46 51 53 50 46 36 44 52
325 316 316 325 333 344 72 53 83 74 83 113 7 355 325 315 316 318 319 328 300 330 347 47 332 48 41 70 89 106 87 80 79 83 75 61 47 47 51 51 45 42 43 43 44 45 42 42 43 38 36 30 47 47
310 297 317 332 354 89 75 48 26 102 86 130 127 51 341 353 345 327 302 306 38 31 73 34 63 57 73 23 100 112 120 110 107 88 74 59 54 51 50 49 48 46 44 38 40 40 42 42 37 27 27 29 39 35
266 301 343 7 58 86 91 57 31 110 137 107 108 134 70 32 10 22 39 37 44 42 50 43 41 45 27 17 45 88 98 116 122 107 84 61 49 46 41 38 34 31 37 36 34 38 35 35 27 21 23 29 31 24
330 340 355 18 60 57 68 6 73 36 83 115 100 220 126 120 53 46 37 7 60 25 74 38 46 53 51 53 55 85 90 101 84 76 115 101 68 60 47 38 38 41 41 34 30 27 32 26 13 12 15 21 19 25
333 338 34 50 78 65 80 24 30 57 315 74 159 318 85 117 64 47 100 48 56 27 24 16 22 65 72 59 59 66 82 90 92 94 93 95 82 62 49 37 42 45 42 31 24 21 19 13 10 9 12 6 14 15
14 31 54 28 83 44 15 350 38 9 109 45 234 169 75 82 65 299 82 64 83 29 47 69 69 76 89 86 81 70 69 89 90 90 88 86 79 68 59 48 42 38 31 24 19 16 9 7 7 3 6 7 5 1
27 48 38 40 14 76 237 40 42 57 56 17 3 70 43 3 323 85 85 76 93 97 102 112 114 106 93 77 70 70 64 84 95 87 79 89 87 68 62 55 47 42 34 21 18 11 4 359 358 359 0 2 358 351
65 357 15 16 9 29 38 27 2 38 62 6 334 42 41 320 91 89 114 140 157 149 142 153 125 97 101 97 93 79 82 84 97 98 77 92 104 90 71 64 53 39 26 23 12 4 360 358 358 359 2 359 351 352
69 340 32 3 0 21 14 17 30 16 5 346 29 348 310 293 137 126 131 151 145 164 166 164 144 121 102 101 136 143 154 138 120 107 109 104 95 92 69 52 42 39 10 6 353 351 349 350 352 356 351 351 349 346
74 12 32 40 341 85 101 81 60 290 9 12 0 345 354 102 219 124 117 87 129 144 150 150 144 133 139 144 148 159 173 179 170 173 177 183 186 93 54 45 14 345 353 347 345 351 336 335 338 339 337 341 348 344
92 37 47 342 54 15 126 26 9 44 13 20 280 276 198 232 61 81 55 138 149 148 148 147 148 147 149 163 168 181 175 184 191 187 209 248 258 273 275 322 346 343 333 337 346 331 325 337 339 328 331 334 338 342
74 4 201 18 354 73 71 21 39 60 11 295 280 286 287 284 298 205 148 171 163 161 161 169 175 172 168 171 172 153 173 164 158 172 228 217 311 343 307 330 337 338 338 339 340 331 330 331 322 328 325 330 331 333
56 342 83 69 100 52 74 349 6 7 290 314 306 288 255 251 249 215 194 186 184 191 195 195 198 191 195 190 197 203 178 183 202 221 226 206 203 265 317 331 335 340 339 339 341 345 350 349 352 351 348 347 343 339
6 135 84 29 289 63 32 338 290 261 279 253 224 260 287 318 290 225 208 204 202 202 197 202 209 211 208 208 208 210 228 226 221 214 226 236 198 349 342 338 338 340 343 344 345 347 351 356 356 353 351 345 341 335
9 70 104 69 261 77 281 313 320 284 238 249 208 225 259 255 261 194 212 199 196 203 210 214 216 228 219 211 205 202 211 204 200 213 223 210 284 350 335 323 332 338 340 341 339 341 345 348 349 349 345 340 335 332
75 70 22 29 317 323 75 320 309 302 237 251 237 258 271 283 256 299 207 197 203 206 202 203 202 206 204 204 210 223 246 241 218 223 245 292 296 316 325 317 322 327 327 328 327 328 333 337 339 337 335 333 333 334